SCP
0 0 0 0 0 0 0 0 0 0 0 0 0 0 0 0 0 0 0 0 0 0 0 0 0 0 0 0 0 0 0 0 0 0 0 0 0 0 0 0 0 1 1 1
0 0 0 0 0 0 0 0 0 0 0 0 0 0 0 0 0 0 0 0 0 0 0 0 0 0 0 0 0 0 0 0 0 0 0 0 0 0 0 0 0 1 1 0
0 0 0 0 0 0 0 0 0 0 0 0 0 0 0 0 0 0 0 0 0 0 0 0 0 0 0 0 0 0 0 0 0 0 0 0 0 0 0 0 1 0 0 0
0 0 0 0 0 0 0 0 0 0 0 0 0 0 0 0 0 0 0 0 0 0 0 0 0 0 0 0 0 0 0 0 0 0 0 0 0 0 1 1 1 0 0 0
0 0 0 0 0 0 0 0 0 0 0 0 0 0 0 0 0 0 0 0 0 0 0 0 0 0 0 0 0 0 0 0 0 0 0 0 0 1 1 1 0 0 0 0
0 0 0 0 0 0 0 0 0 0 0 0 0 0 0 0 0 0 0 0 0 0 0 0 0 0 0 0 0 0 0 0 0 0 0 0 1 0 0 0 0 0 0 0
0 0 0 0 0 0 0 0 0 0 0 0 0 0 0 0 0 0 0 0 0 0 0 0 0 0 0 0 0 0 0 0 0 0 0 0 0 0 0 0 0 0 0 0
0 0 0 0 0 0 0 0 0 0 0 0 0 0 0 0 0 0 0 0 0 0 0 0 0 0 0 0 0 0 0 0 0 0 0 0 0 0 0 0 0 0 0 0
0 0 0 0 0 0 0 0 0 0 0 0 0 0 0 0 0 0 0 0 0 0 0 0 0 0 0 0 0 0 0 0 0 0 0 0 0 0 0 0 0 0 0 0
0 0 0 0 0 0 0 0 0 0 0 0 0 0 0 0 0 0 0 0 0 0 0 0 0 0 0 0 0 0 0 0 0 0 0 0 0 0 0 0 0 0 0 0
0 0 0 0 0 0 0 0 0 0 0 0 0 0 0 0 0 0 0 0 0 0 0 0 0 0 0 0 0 0 0 0 0 0 0 0 0 0 0 0 0 0 0 0
0 0 0 0 0 0 0 0 0 0 0 0 0 0 0 0 0 0 0 0 0 0 0 0 0 0 0 0 0 0 0 0 0 0 0 0 0 0 0 0 0 0 0 0
0 0 0 0 0 0 0 0 0 0 0 0 0 0 0 0 0 0 0 0 0 0 0 0 0 0 0 0 0 0 0 0 0 0 0 0 0 0 0 0 0 0 0 0
0 0 0 0 0 0 0 0 0 0 0 0 0 0 0 0 0 0 0 0 0 0 0 0 0 0 0 0 0 0 0 0 0 0 0 0 0 0 0 0 0 0 0 0
0 0 0 0 0 0 0 0 0 0 0 0 0 0 0 0 0 0 0 0 0 0 0 0 0 0 0 0 0 0 0 0 0 0 0 0 0 0 0 0 0 0 0 0
0 0 0 0 0 0 0 0 0 0 0 0 0 0 0 0 0 0 0 0 0 0 0 0 0 0 0 0 0 0 0 0 0 0 0 0 0 0 0 0 0 0 0 0
0 0 0 0 0 0 0 0 0 0 0 0 0 0 0 0 0 0 0 0 0 0 0 0 0 0 0 0 0 0 0 0 0 0 0 0 0 0 0 0 0 0 0 0
0 0 0 0 0 0 0 0 0 0 0 0 0 0 0 0 0 0 0 0 0 0 0 0 0 0 0 0 0 0 0 0 0 0 0 0 0 0 0 0 0 0 0 0
0 0 0 0 0 0 0 0 0 0 0 0 0 0 0 0 0 0 0 0 0 0 0 0 0 0 0 0 0 0 0 0 0 0 0 0 0 0 0 0 0 0 0 0
0 0 0 0 0 0 0 0 0 0 0 0 0 0 0 0 0 0 0 0 0 0 0 0 0 0 0 0 0 0 0 0 0 0 0 0 0 0 0 0 0 0 0 0
0 0 0 0 0 0 0 0 0 0 0 0 0 0 0 0 0 0 0 0 0 0 0 0 0 0 0 0 0 0 0 0 0 0 0 0 0 0 0 0 0 0 0 0
0 0 0 0 0 0 0 0 0 0 0 0 0 0 0 0 0 0 0 0 0 0 0 0 0 0 0 0 0 0 0 0 0 0 0 0 0 0 0 0 0 0 0 0
0 0 0 0 0 0 0 0 0 0 0 0 0 0 0 0 0 0 0 0 0 0 0 0 0 0 0 0 0 0 0 0 0 0 0 0 0 0 0 0 0 0 0 0
0 0 0 0 0 0 0 0 0 0 0 0 0 0 0 0 0 0 0 0 0 0 0 0 0 0 0 0 0 0 0 0 0 0 0 0 0 0 0 0 0 0 0 0
0 0 0 0 0 0 0 0 0 0 0 0 0 0 0 0 0 0 0 0 0 0 0 0 0 0 0 0 0 0 0 0 0 0 0 0 0 0 0 0 0 0 0 0
0 0 0 0 0 0 0 0 0 0 0 0 0 0 0 0 0 0 0 0 0 0 0 0 0 0 0 0 0 0 0 0 0 0 0 0 0 0 0 0 0 0 0 0
0 0 0 0 0 0 0 0 0 0 0 0 0 0 0 0 0 0 0 0 0 0 0 0 0 0 0 0 0 0 0 0 0 0 0 0 0 0 0 0 0 0 0 0
Wind_Speed
4 3 2 4 5 6 8 8 8 8 8 10 7 6 5 5 5 5 5 5 5 5 5 5 5 5 5 5 5 5 5 5 5 5 5 5 5 5 5 5 5 5 5 5
3 1 3 6 8 7 8 7 8 8 11 8 5 3 4 5 5 5 6 6 6 6 6 5 5 5 5 6 6 5 5 5 5 5 5 5 5 5 5 5 5 5 5 5
3 3 4 8 8 9 6 6 7 9 9 4 4 5 5 5 5 6 6 6 6 6 6 6 5 5 5 5 6 5 5 5 5 5 5 5 5 5 5 5 5 5 5 5
1 3 6 7 1 4 6 6 7 6 5 5 6 6 6 5 5 5 5 5 6 6 6 6 5 5 5 5 5 5 6 5 5 5 5 5 5 5 5 4 5 5 6 5
1 2 9 7 2 4 4 7 6 7 7 5 4 4 4 3 3 4 4 5 5 5 5 5 5 5 5 5 5 5 6 5 5 5 5 5 5 6 5 5 5 5 5 5
3 3 8 6 1 2 2 6 3 4 5 3 1 3 5 3 3 4 4 4 4 4 4 5 5 5 4 5 5 6 7 7 6 5 5 6 6 6 5 5 5 5 5 5
5 6 11 6 2 3 3 6 2 3 4 3 4 5 5 5 5 4 4 5 4 4 4 5 5 4 5 5 6 7 7 7 6 5 5 5 5 4 4 4 4 4 5 5
5 5 11 4 6 7 7 2 1 2 3 4 5 5 5 4 5 5 5 5 4 4 5 5 4 4 5 6 7 7 6 6 6 5 5 4 4 4 4 4 4 4 4 5
10 10 4 5 6 4 2 2 3 3 4 4 4 5 5 4 4 4 5 5 4 4 5 5 5 4 5 7 7 6 6 6 6 6 5 5 4 4 3 3 2 3 3 4
6 9 6 6 5 4 4 4 4 4 4 4 5 5 5 4 4 4 4 5 4 4 5 6 6 6 5 6 6 5 6 6 6 5 5 4 3 3 3 2 3 3 4 4
6 7 5 4 5 5 4 4 4 4 3 4 4 5 4 4 4 4 5 4 4 4 5 6 6 6 7 6 5 6 6 6 5 5 4 4 3 3 4 3 4 4 4 4
8 5 4 5 3 3 3 4 4 4 4 3 3 4 4 4 4 4 4 4 5 5 6 6 6 6 7 6 5 5 6 5 4 4 4 3 3 4 7 7 10 10 9 8
4 2 3 4 2 2 3 4 4 3 4 4 3 3 3 4 4 4 4 4 5 6 6 6 6 6 6 6 5 5 5 5 4 4 4 4 4 4 5 7 9 10 10 11
2 1 2 2 2 2 2 3 2 2 2 3 3 3 3 3 3 4 5 5 5 5 5 5 6 6 6 5 5 5 4 5 5 4 4 4 4 4 4 5 6 6 8 11
2 3 3 2 1 2 2 1 2 2 2 2 2 2 3 3 4 5 5 5 5 5 5 5 6 7 6 5 5 5 4 4 4 3 3 3 4 4 4 4 4 5 5 7
2 1 1 1 2 2 2 2 2 3 3 3 3 3 4 4 4 5 4 4 4 6 6 6 6 6 5 5 5 4 4 7 7 4 4 4 4 4 4 4 4 5 5 6
1 2 2 2 3 3 3 3 3 3 3 3 4 4 4 4 4 4 5 4 4 5 6 6 6 6 5 5 4 4 4 5 8 5 4 4 4 4 4 4 4 5 5 7
3 3 3 3 3 3 3 3 2 3 3 3 3 3 3 3 4 5 5 5 5 5 6 5 6 6 5 5 4 3 3 3 4 4 4 4 4 4 4 4 5 5 5 6
1 1 1 1 1 2 2 2 3 3 2 2 2 3 3 4 4 4 4 4 5 6 6 6 9 6 5 6 6 3 3 4 4 4 4 6 6 4 4 4 5 5 5 5
0 0 0 1 1 1 1 2 2 2 2 2 2 3 3 4 4 4 4 4 4 4 6 7 6 5 5 6 7 3 3 3 4 4 4 4 4 5 5 5 5 5 5 5
1 0 1 1 1 1 1 1 1 2 2 1 2 3 4 4 4 3 3 4 4 5 5 8 5 5 5 6 6 3 3 3 3 4 4 4 4 5 5 5 5 6 5 6
1 0 1 1 1 2 2 1 1 2 2 2 2 3 3 4 4 4 3 4 5 8 6 4 4 7 8 7 3 3 3 3 3 3 4 4 4 5 5 5 5 6 6 6
0 0 1 1 1 2 2 1 1 1 2 2 3 3 3 4 3 3 5 4 4 7 6 4 7 10 11 5 3 3 3 4 4 4 4 4 4 4 5 6 6 6 6 6
0 0 1 1 0 1 2 3 2 2 2 3 3 3 3 3 3 3 4 7 9 9 5 7 10 11 9 4 3 3 4 4 4 4 4 4 4 4 5 5 5 6 6 7
0 0 1 1 1 1 2 2 2 2 2 2 3 3 3 2 3 4 4 5 8 8 5 7 10 10 6 4 4 4 4 4 4 4 4 4 4 4 5 5 5 6 6 6
1 1 1 1 1 1 1 1 2 2 2 3 3 3 3 3 3 3 3 4 5 7 6 4 5 6 4 4 4 4 4 5 5 5 5 5 5 5 5 6 7 6 6 6
1 1 1 1 2 1 1 1 2 3 3 3 4 4 3 3 3 3 4 4 4 4 4 4 4 4 4 4 5 5 5 5 5 5 5 5 5 5 6 7 6 6 6 6
Wind_Direction
256 269 241 237 231 199 200 208 216 240 247 269 277 272 276 284 294 301 303 304 303 305 310 315 316 317 314 314 317 316 314 309 300 298 296 297 298 297 296 292 292 289 288 287
283 278 271 269 251 223 225 231 237 263 271 268 286 293 287 286 289 292 295 297 302 308 311 309 307 309 313 313 312 310 305 301 301 303 302 300 300 301 301 298 295 293 292 291
277 324 333 274 238 204 210 213 200 229 250 291 299 290 280 279 278 279 286 294 300 302 298 298 297 297 299 302 306 305 301 299 300 300 299 299 302 301 298 299 297 294 291 286
295 12 258 251 205 187 212 242 219 238 264 267 269 281 279 263 257 272 284 293 298 301 302 302 303 303 304 306 305 303 300 296 296 298 296 298 297 293 291 290 289 289 289 283
149 270 279 290 232 175 199 271 223 227 260 277 308 313 285 257 240 259 274 285 288 294 298 303 307 308 311 310 310 307 304 298 295 291 291 292 290 291 292 289 287 287 287 285
156 220 251 258 225 179 110 287 243 206 247 275 354 295 280 302 306 300 300 297 299 307 308 307 309 315 315 313 312 305 303 300 294 288 286 286 286 291 293 290 289 294 295 292
195 232 263 256 194 133 167 259 268 210 238 233 221 241 279 306 308 304 306 307 310 313 311 308 313 320 316 313 305 303 305 304 299 290 284 280 282 286 290 292 293 294 300 302
173 211 255 191 147 187 221 253 231 240 243 245 259 277 289 297 302 312 317 317 317 318 315 316 320 320 314 309 309 312 310 309 307 301 293 292 292 293 291 288 296 303 305 309
195 217 245 179 203 225 202 231 242 240 256 256 269 276 287 294 298 304 307 309 312 310 311 316 318 313 306 308 315 316 316 314 312 312 307 304 297 297 299 298 301 304 305 307
250 261 252 238 240 250 232 236 255 258 259 250 260 272 283 289 297 304 307 308 313 316 314 314 316 314 305 309 315 315 315 316 317 319 314 314 316 316 314 307 303 304 306 307
256 273 298 267 231 242 253 261 270 271 256 251 255 270 272 283 289 294 303 308 309 306 304 306 313 314 316 320 321 319 315 315 318 320 319 326 330 326 318 304 295 303 300 299
227 227 215 258 261 238 247 264 266 270 283 278 255 263 278 281 284 289 297 304 306 304 304 307 312 313 317 319 320 317 316 321 323 321 322 328 332 336 336 331 332 329 325 320
228 236 232 265 284 253 246 267 272 260 262 281 278 262 271 281 286 292 297 300 298 298 300 305 310 311 315 319 320 313 310 316 318 320 325 328 332 333 332 338 340 341 339 335
245 234 273 261 273 289 284 290 288 286 283 277 278 283 282 286 293 297 299 300 300 302 304 305 307 309 314 319 320 318 316 316 322 320 320 324 325 324 325 326 331 336 341 340
256 235 242 276 311 319 318 319 314 301 301 305 300 297 295 294 294 298 304 309 313 311 310 312 313 312 318 320 320 321 321 320 319 319 322 323 323 325 326 325 324 326 331 338
275 269 247 259 277 299 313 296 285 285 289 293 297 296 294 291 293 301 309 314 315 312 313 314 309 310 317 320 321 321 320 325 331 331 331 331 330 328 327 326 324 326 329 330
189 247 259 276 276 277 271 267 266 276 281 282 286 297 305 309 311 312 315 315 306 301 305 307 307 313 316 318 317 315 319 324 328 331 328 325 323 323 323 323 323 324 326 327
227 236 232 239 249 261 275 284 289 292 285 285 300 306 305 305 303 306 312 320 323 320 317 317 317 318 321 322 316 311 315 318 319 320 322 323 321 321 323 323 324 323 323 326
243 245 258 265 260 249 265 281 291 295 299 303 299 293 292 295 298 303 311 319 322 319 321 325 326 331 324 319 320 312 314 313 316 319 320 320 324 325 323 322 321 320 319 321
316 326 345 329 334 300 282 290 294 294 297 301 301 304 307 306 306 308 309 301 295 294 305 318 322 323 320 315 321 315 313 312 313 315 317 315 315 317 319 320 319 318 318 318
293 307 311 316 323 320 297 283 279 286 294 290 282 286 291 299 304 305 306 305 306 311 315 323 330 323 316 318 324 320 314 311 310 309 310 311 313 316 317 317 317 317 317 317
273 271 287 301 311 312 313 306 286 289 299 297 294 295 300 304 309 304 282 276 295 316 322 315 316 317 321 326 325 319 313 309 306 306 305 307 309 310 311 313 312 312 312 314
266 271 289 291 284 294 315 316 296 286 287 290 293 294 290 288 289 298 302 304 306 314 320 313 318 322 327 334 324 317 312 307 304 301 299 299 300 301 303 305 306 308 310 311
343 335 312 318 355 352 322 312 307 298 287 285 286 284 285 295 297 283 279 304 317 320 318 316 325 330 336 340 325 317 310 306 303 299 298 297 297 298 299 301 304 306 306 307
29 7 13 21 347 304 298 312 322 316 310 304 305 306 296 276 277 295 300 301 312 322 317 318 325 330 335 324 319 312 307 301 300 300 294 296 296 296 295 296 297 299 300 301
16 337 305 283 281 292 307 317 313 311 313 312 313 313 309 299 290 293 300 305 308 316 318 314 315 320 318 312 308 305 301 303 307 305 299 295 293 294 294 295 295 294 295 295
19 4 357 350 339 334 323 309 302 303 304 300 300 306 309 310 309 310 309 309 313 314 311 310 310 310 308 306 303 301 298 296 295 293 293 291 290 290 291 291 291 291 292 293